Location: Maiden
(35.5760°N, 81.2120°W)
Time: 21:12:03
(UTC-04:00)

ISS - Visible Passes

Search period start: 20 May 2018 00:00
Search period end: 30 May 2018 00:00
Orbit: 402 x 407 km, 51.6° (Epoch: 21 May)

Date Brightness Start Highest point End Pass type
(mag) Time Alt. Az. Time Alt. Az. Time Alt. Az.
20 May -2.0 05:03:41 10° NNW 05:06:43 34° NE 05:09:43 10° ESE visible
20 May -3.8 21:41:14 10° SSW 21:44:26 54° SE 21:47:38 10° ENE visible
20 May -0.8 23:18:56 10° WNW 23:21:08 17° NNW 23:23:20 10° NNE visible
21 May -1.0 04:11:54 10° NNW 04:14:24 20° NNE 04:16:54 10° E visible
21 May -1.6 22:25:56 10° W 22:28:46 27° NW 22:31:38 10° NNE visible
22 May -0.4 03:20:23 10° N 03:22:00 13° NNE 03:23:37 10° NE visible
22 May -3.9 04:55:36 10° NW 04:58:53 87° SSW 05:02:07 10° SE visible
22 May -2.9 21:33:19 10° WSW 21:36:30 51° NW 21:39:43 10° NE visible
23 May -2.7 04:03:31 10° NW 04:06:40 43° NE 04:09:47 10° ESE visible
23 May -2.0 05:41:02 10° W 05:42:51 14° SW 05:44:40 10° SSW visible
23 May -0.5 22:19:14 10° WNW 22:21:07 14° NNW 22:22:59 10° N visible
24 May -1.5 04:53:26 12° SSE 04:53:26 12° SSE 04:53:41 10° SSE visible
24 May -1.1 21:26:02 10° W 21:28:41 22° NNW 21:31:21 10° NNE visible
26 May -0.5 21:19:32 10° NW 21:20:59 12° NNW 21:22:27 10° N visible
